Torna al catalogo

FENGYUN 1C DEB

AttivoSSO
NORAD 30822·DEBRIS·🇨🇳 China

Lanciato May 10, 1999 da Taiyuan Satellite Launch Center

Loading…

Prossimi Passaggi (prossime 24 ore)

TLE

AggiornatoSource: Space-Track

Epoca: Sep 14, 2026, 12:56 UTC

1 30822U 99025AVG 26257.53909839  .00000361  00000-0  21684-3 0  9992
2 30822  98.7116 282.8930 0073134 221.1787 293.4722 14.11642080  5884

Traccia FENGYUN 1C DEB in tempo reale con AllMySat

Download on the App Store